Weather History for Montague, CA

Change the Weather History Date:

Sunday, May 6, 2012

  Actual Average Record
Temperature  
Mean Temperature 53 °F 54 °F  
Max Temperature 75 °F 69 °F 96 °F (1992)
Min Temperature 31 °F 38 °F 24 °F (1968)
Degree Days  
Heating Degree Days 12 11  
Month to date heating degree days 98 73  
Since 1 July heating degree days 5166 5171  
Cooling Degree Days 0 0  
Month to date cooling degree days 0 0  
Year to date cooling degree days 1 0  
Growing Degree Days 2 (Base 50)    
Moisture  
Dew Point 32 °F    
Average Humidity 49    
Maximum Humidity 89    
Minimum Humidity 14    
Precipitation  
Precipitation 0.00 in 0.07 in 0.63 in (1994)
Month to date precipitation 0.06 0.40  
Year to date precipitation 6.24 8.48  
Sea Level Pressure  
Sea Level Pressure 30.29 in    
Wind  
Wind Speed 5 mph (NNE)    
Max Wind Speed 17 mph    
Max Gust Speed 24 mph    
Visibility 10 miles    
Events      
T = Trace of Precipitation, MM = Missing Value Source: NWS Daily Summary

Daily Weather History Graph

Daily Weather History Graph

Search for Another Location

Airport:

Trip Planner

Search our weather history database for the weather conditions in past years. The results will help you decide how hot, cold, wet, or windy it might be!

Date:

Astronomy

May. 06, 2012 Rise Set
Actual Time 5:59 AM PDT 8:14 PM PDT
Civil Twilight 5:28 AM PDT 8:45 PM PDT
Nautical Twilight 4:50 AM PDT 9:23 PM PDT
Astronomical Twilight 4:08 AM PDT 10:05 PM PDT
Moon 9:27 PM PDT (5/6) 6:13 AM PDT (5/6)
Length of Visible Light 15h 16m
Length of Day
14h 15m
Full, 99% of the Moon is Illuminated
May 6
Full
May 12
Last Quarter
May 20
New
May 28
First Quarter
Jun 4
Full

Hourly Weather History & Observations

Time (PDT) Temp. Windchill Dew Point Humidity Pressure Visibility Wind Dir Wind Speed Gust Speed Precip Events Conditions
1:53 AM 39.9 °F 36.7 °F 33.1 °F 77% 30.38 in 10.0 mi North 4.6 mph - N/A   Clear
2:53 AM 39.9 °F - 33.1 °F 77% 30.36 in 10.0 mi Calm Calm - N/A   Clear
3:53 AM 37.0 °F - 33.1 °F 86% 30.37 in 10.0 mi Calm Calm - N/A   Clear
4:53 AM 35.1 °F - 30.9 °F 85% 30.36 in 10.0 mi Calm Calm - N/A   Clear
5:53 AM 32.0 °F 27.5 °F 28.9 °F 88% 30.38 in 10.0 mi SE 4.6 mph - N/A   Clear
6:53 AM 35.1 °F - 32.0 °F 89% 30.38 in 10.0 mi Calm Calm - N/A   Clear
7:53 AM 44.1 °F - 36.0 °F 73% 30.38 in 10.0 mi Calm Calm - N/A   Clear
8:53 AM 50.0 °F - 35.1 °F 57% 30.36 in 10.0 mi North 4.6 mph - N/A   Clear
9:53 AM 53.1 °F - 34.0 °F 48% 30.36 in 10.0 mi Calm Calm - N/A   Clear
10:53 AM 57.9 °F - 35.1 °F 42% 30.34 in 10.0 mi Variable 5.8 mph - N/A   Clear
11:53 AM 62.1 °F - 30.9 °F 31% 30.32 in 10.0 mi Variable 6.9 mph - N/A   Clear
12:53 PM 64.9 °F - 30.9 °F 28% 30.29 in 10.0 mi Variable 3.5 mph - N/A   Clear
1:53 PM 69.1 °F - 30.9 °F 24% 30.27 in 10.0 mi Variable 6.9 mph - N/A   Clear
2:53 PM 73.0 °F - 27.0 °F 18% 30.24 in 10.0 mi North 13.8 mph 19.6 mph N/A   Clear
3:53 PM 73.9 °F - 27.0 °F 18% 30.22 in 10.0 mi North 5.8 mph 19.6 mph N/A   Clear
4:53 PM 73.0 °F - 25.0 °F 17% 30.21 in 10.0 mi North 6.9 mph 16.1 mph N/A   Clear
5:53 PM 73.0 °F - 21.9 °F 15% 30.21 in 10.0 mi NNE 8.1 mph - N/A   Clear
6:53 PM 71.1 °F - 28.9 °F 21% 30.20 in 10.0 mi NE 8.1 mph - N/A   Clear
7:53 PM 61.0 °F - 34.0 °F 36% 30.20 in 10.0 mi NE 10.4 mph - N/A   Clear
8:53 PM 55.0 °F - 37.0 °F 51% 30.22 in 10.0 mi North 4.6 mph - N/A   Clear
9:53 PM 55.9 °F - 36.0 °F 47% 30.23 in 10.0 mi North 6.9 mph - N/A   Clear
10:53 PM 54.0 °F - 36.0 °F 51% 30.24 in 10.0 mi North 11.5 mph - N/A   Clear
11:53 PM 53.1 °F - 37.0 °F 55% 30.23 in 10.0 mi North 5.8 mph - N/A   Clear